When you browse on this site, cookies collect data to enhance your experience and personalize the content and advertising you see.
Visit our Privacy Policy to learn more. By continuing to use the site, you agree to this use of cookies and data.
  • In Hungary
  • List of Countries
  • For 7 days
  • Water Temperature
  • Satellite Maps
  • Weather Map
  • News
  • Weather Widgets
  • user-avatar
    Login

    Hourly Weather Sonthofen

    Today, 26 June, Wednesday

    Time Temperature Precipitation Wind Pressure Humidity
    00:00 +23°C° 0 mm 1 mps 701 mmHg 53%
    01:00 +23°C° 0 mm 2 mps 701 mmHg 48%
    02:00 +21°C° 0 mm 2 mps 701 mmHg 46%
    03:00 +22°C° 0 mm 1 mps 701 mmHg 44%
    04:00 +22°C° 0 mm 1 mps 701 mmHg 42%
    05:00 +23°C° 0 mm 1 mps 701 mmHg 44%
    06:00 +25°C° 0 mm 1 mps 702 mmHg 46%
    07:00 +27°C° 0 mm 1 mps 702 mmHg 47%
    08:00 +29°C° 0 mm 1 mps 702 mmHg 43%
    09:00 +31°C° 0 mm 1 mps 703 mmHg 39%
    10:00 +33°C° 0 mm 1 mps 703 mmHg 35%
    11:00 +34°C° 0 mm 1 mps 703 mmHg 33%
    12:00 +35°C° 0 mm 1 mps 703 mmHg 30%
    13:00 +36°C° 0 mm 2 mps 703 mmHg 28%
    14:00 +36°C° 0 mm 2 mps 703 mmHg 31%
    15:00 +36°C° 0 mm 2 mps 703 mmHg 33%
    16:00 +35°C° 0 mm 2 mps 703 mmHg 36%
    17:00 +34°C° 0 mm 2 mps 702 mmHg 48%
    18:00 +31°C° 0 mm 1 mps 702 mmHg 61%
    19:00 +29°C° 0 mm 1 mps 702 mmHg 73%
    20:00 +27°C° 0 mm 1 mps 702 mmHg 75%
    21:00 +25°C° 0 mm 1 mps 702 mmHg 77%
    22:00 +23°C° 0 mm 1 mps 701 mmHg 79%
    23:00 +23°C° 0 mm 1 mps 701 mmHg 76%

    Tomorrow, 27 June, Thursday

    Time Temperature Precipitation Wind Pressure Humidity
    00:00 +23°C° 0 mm 1 mps 702 mmHg 73%
    01:00 +23°C° 0 mm 1 mps 702 mmHg 70%
    02:00 +23°C° 0 mm 1 mps 701 mmHg 68%
    03:00 +22°C° 0 mm 1 mps 701 mmHg 66%
    04:00 +22°C° 0 mm 1 mps 700 mmHg 64%
    05:00 +24°C° 0 mm 1 mps 701 mmHg 63%
    06:00 +25°C° 0 mm 1 mps 701 mmHg 62%
    07:00 +27°C° 0 mm 1 mps 702 mmHg 60%
    08:00 +29°C° 0 mm 1 mps 702 mmHg 55%
    09:00 +31°C° 0 mm 1 mps 702 mmHg 49%
    10:00 +33°C° 0 mm 1 mps 702 mmHg 43%
    11:00 +34°C° 0.1 mm 2 mps 702 mmHg 45%
    12:00 +34°C° 0.1 mm 3 mps 702 mmHg 47%
    13:00 +34°C° 0.1 mm 3 mps 701 mmHg 48%
    14:00 +33°C° 0.5 mm 3 mps 701 mmHg 54%
    15:00 +31°C° 0.5 mm 2 mps 701 mmHg 59%
    16:00 +30°C° 0.5 mm 2 mps 701 mmHg 64%
    17:00 +29°C° 1 mm 2 mps 700 mmHg 73%
    18:00 +27°C° 1 mm 1 mps 700 mmHg 81%
    19:00 +26°C° 1 mm 1 mps 700 mmHg 90%
    20:00 +24°C° 0.2 mm 1 mps 700 mmHg 92%
    21:00 +22°C° 0.2 mm 1 mps 700 mmHg 93%
    22:00 +20°C° 0.2 mm 1 mps 700 mmHg 95%
    23:00 +20°C° 0 mm 1 mps 700 mmHg 94%

    Day after tomorrow, 28 June, Friday

    Time Temperature Precipitation Wind Pressure Humidity
    00:00 +17°C° 0 mm 0 mps 700 mmHg 94%
    01:00 +17°C° 0 mm 0 mps 699 mmHg 94%
    02:00 +16°C° 0 mm 0 mps 699 mmHg 94%
    03:00 +16°C° 0 mm 0 mps 699 mmHg 94%
    04:00 +16°C° 0 mm 0 mps 699 mmHg 94%
    05:00 +17°C° 0 mm 0 mps 699 mmHg 92%
    06:00 +18°C° 0 mm 0 mps 699 mmHg 90%
    07:00 +20°C° 0 mm 0 mps 699 mmHg 89%
    08:00 +23°C° 0 mm 1 mps 699 mmHg 77%
    09:00 +25°C° 0 mm 1 mps 699 mmHg 65%
    10:00 +27°C° 0 mm 2 mps 699 mmHg 54%
    11:00 +28°C° 0 mm 2 mps 699 mmHg 49%
    12:00 +28°C° 0 mm 2 mps 699 mmHg 45%
    13:00 +29°C° 0 mm 2 mps 699 mmHg 40%
    14:00 +29°C° 0 mm 2 mps 699 mmHg 42%
    15:00 +28°C° 0 mm 2 mps 698 mmHg 44%
    16:00 +28°C° 0 mm 2 mps 698 mmHg 45%
    17:00 +26°C° 0 mm 2 mps 698 mmHg 55%
    18:00 +25°C° 0 mm 2 mps 698 mmHg 64%
    19:00 +23°C° 0 mm 2 mps 698 mmHg 73%
    20:00 +21°C° 0 mm 1 mps 698 mmHg 79%
    21:00 +20°C° 0 mm 1 mps 698 mmHg 85%
    22:00 +18°C° 0 mm 1 mps 698 mmHg 91%
    23:00 +16°C° 0 mm 1 mps 697 mmHg 90%

    29 June, Saturday

    Time Temperature Precipitation Wind Pressure Humidity
    00:00 +16°C° 0 mm 1 mps 697 mmHg 90%
    01:00 +16°C° 0 mm 1 mps 697 mmHg 89%
    02:00 +16°C° 0 mm 1 mps 697 mmHg 88%
    03:00 +15°C° 0 mm 1 mps 697 mmHg 87%
    04:00 +15°C° 0 mm 1 mps 697 mmHg 86%
    05:00 +18°C° 0 mm 1 mps 697 mmHg 79%
    06:00 +20°C° 0 mm 1 mps 697 mmHg 72%
    07:00 +20°C° 0 mm 0 mps 697 mmHg 65%
    08:00 +24°C° 0 mm 1 mps 698 mmHg 59%
    09:00 +26°C° 0 mm 1 mps 698 mmHg 52%
    10:00 +28°C° 0 mm 2 mps 698 mmHg 45%
    11:00 +29°C° 0 mm 2 mps 698 mmHg 44%
    12:00 +30°C° 0 mm 2 mps 698 mmHg 42%
    13:00 +31°C° 0 mm 2 mps 698 mmHg 40%
    14:00 +31°C° 0 mm 2 mps 698 mmHg 43%
    15:00 +30°C° 0 mm 2 mps 697 mmHg 45%
    16:00 +30°C° 0 mm 2 mps 697 mmHg 48%
    17:00 +29°C° 0 mm 2 mps 697 mmHg 56%
    18:00 +27°C° 0 mm 1 mps 697 mmHg 66%
    19:00 +26°C° 0 mm 1 mps 697 mmHg 75%
    20:00 +24°C° 0 mm 1 mps 697 mmHg 80%
    21:00 +22°C° 0 mm 1 mps 697 mmHg 84%
    22:00 +20°C° 0 mm 1 mps 697 mmHg 89%
    23:00 +20°C° 0 mm 1 mps 697 mmHg 86%

    30 June, Sunday

    Time Temperature Precipitation Wind Pressure Humidity
    00:00 +20°C° 0 mm 1 mps 697 mmHg 84%
    01:00 +20°C° 0 mm 1 mps 697 mmHg 82%
    02:00 +20°C° 0 mm 1 mps 697 mmHg 78%
    03:00 +20°C° 0 mm 1 mps 697 mmHg 74%
    04:00 +20°C° 0 mm 1 mps 697 mmHg 70%
    05:00 +22°C° 0 mm 1 mps 697 mmHg 66%
    06:00 +24°C° 0 mm 1 mps 697 mmHg 63%
    07:00 +25°C° 0 mm 1 mps 698 mmHg 60%
    08:00 +27°C° 0 mm 2 mps 698 mmHg 53%
    09:00 +29°C° 0 mm 2 mps 698 mmHg 46%
    10:00 +30°C° 0 mm 3 mps 699 mmHg 40%
    11:00 +31°C° 0 mm 3 mps 699 mmHg 38%
    12:00 +33°C° 0 mm 3 mps 699 mmHg 35%
    13:00 +33°C° 0 mm 3 mps 699 mmHg 33%
    14:00 +33°C° 0 mm 3 mps 699 mmHg 33%
    15:00 +33°C° 0 mm 3 mps 699 mmHg 34%
    16:00 +33°C° 0 mm 3 mps 698 mmHg 34%
    17:00 +31°C° 0 mm 2 mps 698 mmHg 43%
    18:00 +29°C° 0 mm 1 mps 698 mmHg 52%
    19:00 +25°C° 0 mm 0 mps 698 mmHg 62%
    20:00 +26°C° 0 mm 1 mps 698 mmHg 61%
    21:00 +24°C° 0 mm 1 mps 698 mmHg 61%
    22:00 +22°C° 0 mm 1 mps 698 mmHg 61%
    23:00 +22°C° 0 mm 1 mps 698 mmHg 60%

    1 July, Monday

    Time Temperature Precipitation Wind Pressure Humidity
    00:00 +22°C° 0 mm 1 mps 698 mmHg 58%
    01:00 +20°C° 0 mm 2 mps 698 mmHg 56%
    02:00 +20°C° 0 mm 2 mps 697 mmHg 53%
    03:00 +20°C° 0 mm 2 mps 697 mmHg 50%
    04:00 +20°C° 0 mm 2 mps 697 mmHg 46%
    05:00 +23°C° 0 mm 1 mps 697 mmHg 47%
    06:00 +24°C° 0 mm 1 mps 697 mmHg 48%
    07:00 +25°C° 0 mm 1 mps 698 mmHg 49%
    08:00 +27°C° 0 mm 1 mps 698 mmHg 46%
    09:00 +29°C° 0 mm 2 mps 698 mmHg 44%
    10:00 +30°C° 0 mm 2 mps 698 mmHg 42%
    11:00 +31°C° 0 mm 2 mps 698 mmHg 41%
    12:00 +32°C° 0 mm 2 mps 698 mmHg 40%
    13:00 +32°C° 0 mm 2 mps 698 mmHg 38%
    14:00 +32°C° 0.2 mm 2 mps 697 mmHg 44%
    15:00 +31°C° 0.2 mm 2 mps 697 mmHg 49%
    16:00 +30°C° 0.2 mm 2 mps 697 mmHg 55%
    17:00 +28°C° 2.3 mm 1 mps 697 mmHg 66%
    18:00 +26°C° 2.3 mm 1 mps 697 mmHg 77%
    19:00 +24°C° 2.3 mm 1 mps 697 mmHg 88%
    20:00 +23°C° 2.1 mm 1 mps 697 mmHg 90%
    21:00 +21°C° 2.1 mm 1 mps 697 mmHg 92%
    22:00 +18°C° 2.1 mm 0 mps 697 mmHg 94%
    23:00 +18°C° 1.1 mm 0 mps 697 mmHg 94%
    Show more